NOAA 15 1 25338U 98030A 21061.78616980 .00000025 00000-0 28901-4 0 9997 2 25338 98.6947 91.2020 0009663 226.9950 133.0420 14.26015328186041 DMSP 5D-3 F15 (USA 147) 1 25991U 99067A 21061.82606122 -.00000089 00000-0 -21917-4 0 9997 2 25991 99.0052 41.6097 0010891 86.9073 298.5315 14.16460330 97021 METEOSAT-8 (MSG-1) 1 27509U 02040B 21061.61819237 .00000131 00000-0 00000+0 0 9990 2 27509 7.1809 52.9692 0001654 308.2623 63.4019 1.00266342 67878 DMSP 5D-3 F16 (USA 172) 1 28054U 03048A 21061.86901719 -.00000042 00000-0 13533-5 0 9992 2 28054 98.9440 46.4346 0006885 204.7902 270.3810 14.13646830896407 NOAA 18 1 28654U 05018A 21060.92497111 .00000087 00000-0 71680-4 0 9993 2 28654 99.0080 125.3014 0013756 222.2472 137.7640 14.12585460813266 METEOSAT-9 (MSG-2) 1 28912U 05049B 21060.82102753 .00000011 00000-0 00000-0 0 9999 2 28912 4.9758 68.9796 0001173 260.0052 129.8766 1.00266542 55655 FORMOSAT-3 FM6 1 29047U 06011A 21061.40891617 .00000087 00000-0 50321-4 0 9996 2 29047 71.9785 303.4727 0050950 334.9603 24.9062 14.28796822778176 FORMOSAT-3 FM1 1 29048U 06011B 21061.43344444 .00000084 00000-0 49307-4 0 9990 2 29048 71.9654 214.0242 0045365 294.3536 65.2868 14.28758365780635 FORMOSAT-3 FM5 1 29049U 06011C 21061.14058527 .00000066 00000-0 42269-4 0 9993 2 29049 72.0216 27.7380 0036322 317.5590 42.2739 14.28834743776378 FORMOSAT-3 FM3 1 29050U 06011D 21061.49605944 .00000220 00000-0 56409-4 0 9997 2 29050 72.0163 146.7199 0051172 217.7070 142.0493 14.59024235794068 FORMOSAT-3 FM4 1 29051U 06011E 21061.76444172 .00000086 00000-0 49338-4 0 9995 2 29051 72.0041 288.0249 0069095 199.4995 160.3497 14.28869886779082 FORMOSAT-3 FM2 1 29052U 06011F 21061.11523707 .00000097 00000-0 54236-4 0 9992 2 29052 72.0367 4.3217 0042238 278.3736 81.2614 14.28975969776492 EWS-G1 (GOES 13) 1 29155U 06018A 21060.97613303 .00000028 00000-0 00000-0 0 9998 2 29155 0.3887 275.8027 0003817 334.7787 322.4479 1.00270275 23986 METOP-A 1 29499U 06044A 21061.83088373 -.00000006 00000-0 16330-4 0 9991 2 29499 98.4879 105.2785 0000801 120.8780 294.5140 14.21499798745592 DMSP 5D-3 F17 (USA 191) 1 29522U 06050A 21061.75850956 .00000008 00000-0 26975-4 0 9997 2 29522 98.7908 80.1018 0010324 157.5260 202.6367 14.14038453739230 FENGYUN 3A 1 32958U 08026A 21061.21090317 -.00000011 00000-0 14371-4 0 9999 2 32958 98.4384 39.9808 0007929 315.8682 44.1861 14.18648599661374 FENGYUN 2E 1 33463U 08066A 21061.55538249 -.00000206 00000-0 00000+0 0 9998 2 33463 4.8819 67.6481 0004344 322.0927 57.2342 1.00263432 44713 NOAA 19 1 33591U 09005A 21061.79902517 -.00000004 00000-0 22905-4 0 9992 2 33591 99.1920 79.8179 0014837 73.1777 287.1020 14.12453965621862 GOES 14 1 35491U 09033A 21061.54452272 -.00000101 00000-0 00000+0 0 9990 2 35491 0.0702 157.8272 0010600 68.8968 25.5105 1.00270303 42771 METEOR-M 1 1 35865U 09049A 21061.70616671 .00000002 00000-0 19914-4 0 9993 2 35865 98.4687 44.1281 0002886 137.3964 222.7439 14.22265718594621 DMSP 5D-3 F18 (USA 210) 1 35951U 09057A 21061.79841816 .00000060 00000-0 54615-4 0 9999 2 35951 98.6716 49.3156 0011058 357.6338 2.4781 14.13335947586494 GOES 15 1 36411U 10008A 21061.65614001 .00000047 00000-0 00000+0 0 9997 2 36411 0.1807 253.8707 0003887 135.7128 238.9935 1.00266370 40286 COMS 1 1 36744U 10032A 21060.98948014 -.00000352 00000-0 00000-0 0 9993 2 36744 0.0245 132.9663 0000891 252.2462 259.1766 1.00269195 31708 FENGYUN 3B 1 37214U 10059A 21061.47855329 .00000022 00000-0 34595-4 0 9999 2 37214 99.0726 53.5426 0015963 256.0583 103.8801 14.15977571534190 SUOMI NPP 1 37849U 11061A 21061.80245122 .00000021 00000-0 30701-4 0 9992 2 37849 98.7284 1.9504 0000647 102.0467 338.1521 14.19552140484277 FENGYUN 2F 1 38049U 12002A 21061.56026770 -.00000363 00000-0 00000+0 0 9994 2 38049 2.6603 82.5736 0004430 22.9123 8.5055 1.00260150 33514 METEOSAT-10 (MSG-3) 1 38552U 12035B 21060.96575196 .00000056 00000-0 00000-0 0 9992 2 38552 1.2196 0.3518 0001537 39.8755 116.9640 1.00279335 31476 METOP-B 1 38771U 12049A 21061.82314836 -.00000002 00000-0 19097-4 0 9990 2 38771 98.6937 123.3914 0001188 21.6736 88.2743 14.21499052438729 FENGYUN 3C 1 39260U 13052A 21061.49701949 .00000016 00000-0 29247-4 0 9999 2 39260 98.5149 107.0302 0010926 187.6112 172.4916 14.15860669385131 METEOR-M 2 1 40069U 14037A 21061.52455672 -.00000005 00000-0 17237-4 0 9990 2 40069 98.4742 94.8928 0004475 248.9522 111.1182 14.20681723344850 HIMAWARI-8 1 40267U 14060A 21060.99192274 -.00000284 00000-0 00000-0 0 9997 2 40267 0.0466 203.4075 0000830 158.1683 296.1578 1.00272036 23375 FENGYUN 2G 1 40367U 14090A 21060.92216661 -.00000309 00000-0 00000-0 0 9999 2 40367 0.7652 93.1932 0002781 303.3753 194.9841 1.00266794 22657 METEOSAT-11 (MSG-4) 1 40732U 15034A 21060.96383278 -.00000014 00000-0 00000-0 0 9990 2 40732 0.2374 251.4749 0000599 18.8398 236.2698 1.00269163 20653 ELEKTRO-L 2 1 41105U 15074A 21061.31984547 -.00000123 00000-0 00000+0 0 9995 2 41105 1.8191 93.8717 0001168 163.5290 3.5380 1.00270679 19135 HIMAWARI-9 1 41836U 16064A 21061.78149806 -.00000284 00000-0 00000+0 0 9996 2 41836 0.0347 284.2037 0001215 103.3708 195.2628 1.00270544 15928 GOES 16 1 41866U 16071A 21061.80952015 -.00000257 00000-0 00000+0 0 9994 2 41866 0.0524 304.7981 0001668 63.7711 8.4359 1.00270595 15730 FENGYUN 4A 1 41882U 16077A 21060.98476940 -.00000337 00000-0 00000-0 0 9994 2 41882 0.1396 90.6026 0004073 342.2208 186.3204 1.00267911 15593 CYGFM05 1 41884U 16078A 21061.25791217 .00000596 00000-0 32923-4 0 9994 2 41884 34.9557 258.2774 0015836 191.8652 168.1688 15.14902714233213 CYGFM04 1 41885U 16078B 21061.73346521 .00000595 00000-0 32412-4 0 9994 2 41885 34.9486 247.1124 0014447 208.4772 151.5151 15.15410345233368 CYGFM02 1 41886U 16078C 21061.79262216 .00000600 00000-0 32701-4 0 9997 2 41886 34.9579 248.6614 0015138 204.4430 155.5564 15.15409632233377 CYGFM01 1 41887U 16078D 21061.25919530 .00000597 00000-0 33152-4 0 9993 2 41887 34.9525 259.8142 0016296 191.9852 168.0473 15.14697014233193 CYGFM08 1 41888U 16078E 21061.24581839 .00000610 00000-0 33429-4 0 9993 2 41888 34.9495 254.5938 0015587 200.3828 159.6262 15.15112516233243 CYGFM06 1 41889U 16078F 21061.77246095 .00000608 00000-0 33109-4 0 9996 2 41889 34.9573 247.4800 0014059 204.3628 155.6420 15.15400101233360 CYGFM07 1 41890U 16078G 21061.75106131 .00000606 00000-0 32978-4 0 9993 2 41890 34.9511 246.5878 0013872 207.8279 152.1691 15.15399001233369 CYGFM03 1 41891U 16078H 21061.74782653 .00000603 00000-0 32871-4 0 9991 2 41891 34.9543 246.9368 0013349 206.4341 153.5690 15.15385422233363 FENGYUN 3D 1 43010U 17072A 21061.51573393 -.00000008 00000-0 16894-4 0 9992 2 43010 98.7785 4.2478 0002537 66.6205 293.5238 14.19761855170817 NOAA 20 1 43013U 17073A 21061.75175537 .00000006 00000-0 23896-4 0 9997 2 43013 98.7450 2.0105 0000996 70.5499 289.5784 14.19551688170304 GOES 17 1 43226U 18022A 21061.72610324 .00000089 00000-0 00000+0 0 9991 2 43226 0.0615 291.3735 0000676 89.7783 263.7261 1.00271653 11051 FENGYUN 2H 1 43491U 18050A 21060.62073380 -.00000133 00000-0 00000-0 0 9991 2 43491 0.0954 215.9199 0002776 268.4262 337.7748 1.00267729 10126 METOP-C 1 43689U 18087A 21061.76885118 -.00000003 00000-0 18754-4 0 9991 2 43689 98.7008 123.7619 0001864 351.4423 8.6722 14.21492388120295 GEO-KOMPSAT-2A 1 43823U 18100A 21060.98948014 -.00000352 00000-0 00000-0 0 9993 2 43823 0.0542 297.5726 0002101 5.5680 341.2821 1.00273922 8239 IOD-1 GEMS 1 44385U 98067QK 21061.49060154 .00198393 00000-0 76875-3 0 9992 2 44385 51.6325 99.2072 0003535 18.9482 341.1653 15.86092144 94977 METEOR-M2 2 1 44387U 19038A 21061.50603796 -.00000037 00000-0 27382-5 0 9991 2 44387 98.6562 22.9078 0001194 148.7930 211.3316 14.23685739 86255